Weather History for KHRI - July, 2013

Change the Weather History Date:

Wednesday, July 24, 2013

  Actual Average Record
Temperature  
Mean Temperature 84 °F -  
Max Temperature 99 °F 89 °F 110 °F (1928)
Min Temperature 69 °F 60 °F 45 °F (1948)
Cooling Degree Days 18    
Growing Degree Days 34 (Base 50)    
Moisture  
Dew Point 45 °F    
Average Humidity 29    
Maximum Humidity 49    
Minimum Humidity 13    
Precipitation  
Precipitation 0.00 in - - ()
Sea Level Pressure  
Sea Level Pressure 29.88 in    
Wind  
Wind Speed 7 mph (WSW)    
Max Wind Speed 12 mph    
Max Gust Speed 17 mph    
Visibility 10 miles    
Events      
Averages and records for this station are not official NWS values.
T = Trace of Precipitation, MM = Missing Value Source: NWS Daily Summary

Daily Weather History Graph

Daily Weather History Graph

Search for Another Location

Airport or City:

Trip Planner

Search our weather history database for the weather conditions in past years. The results will help you decide how hot, cold, wet, or windy it might be!

Date:

Astronomy

Jul. 24, 2013 Rise Set
Actual Time 5:31 AM PDT 8:35 PM PDT
Civil Twilight 4:55 AM PDT 9:10 PM PDT
Nautical Twilight 4:09 AM PDT 9:56 PM PDT
Astronomical Twilight 3:14 AM PDT 10:51 PM PDT
Moon 9:31 PM PDT (7/24) 8:07 AM PDT (7/24)
Length of Visible Light 16h 14m
Length of Day
15h 03m
Waning Gibbous, 94% of the Moon is Illuminated
Jul 24
Waning Gibbous
Jul 29
Last Quarter
Aug 6
New
Aug 14
First Quarter
Aug 20
Full

Hourly Weather History & Observations

Time (PDT) Temp. Heat Index Dew Point Humidity Pressure Visibility Wind Dir Wind Speed Gust Speed Precip Events Conditions
12:53 AM 73.9 °F - 46.0 °F 37% 29.87 in 10.0 mi Variable 4.6 mph - N/A   Clear
1:53 AM 75.0 °F - 48.9 °F 40% 29.87 in 10.0 mi SW 9.2 mph - N/A   Clear
2:53 AM 73.9 °F - 50.0 °F 43% 29.88 in 10.0 mi SW 3.5 mph - N/A   Clear
3:53 AM 69.1 °F - 46.9 °F 45% 29.90 in 10.0 mi South 6.9 mph - N/A   Clear
4:53 AM 72.0 °F - 44.1 °F 37% 29.90 in 10.0 mi SW 8.1 mph - N/A   Clear
5:53 AM 70.0 °F - 43.0 °F 38% 29.91 in 10.0 mi SW 5.8 mph - N/A   Clear
6:53 AM 69.1 °F - 48.9 °F 49% 29.92 in 10.0 mi East 3.5 mph - N/A   Clear
7:53 AM 77.0 °F - 46.0 °F 33% 29.92 in 10.0 mi West 4.6 mph - N/A   Clear
8:53 AM 79.0 °F - 50.0 °F 36% 29.93 in 10.0 mi West 10.4 mph - N/A   Clear
9:53 AM 82.0 °F 81.2 °F 53.1 °F 37% 29.93 in 10.0 mi West 9.2 mph - N/A   Clear
10:53 AM 87.1 °F - 48.0 °F 26% 29.92 in 10.0 mi West 9.2 mph - N/A   Clear
11:53 AM 90.0 °F - 46.0 °F 22% 29.91 in 10.0 mi NW 6.9 mph - N/A   Clear
12:53 PM 91.9 °F - 43.0 °F 18% 29.89 in 10.0 mi WNW 6.9 mph - N/A   Clear
1:53 PM 96.1 °F - 46.0 °F 18% 29.87 in 10.0 mi WNW 8.1 mph - N/A   Clear
2:53 PM 96.1 °F - 41.0 °F 15% 29.86 in 10.0 mi West 11.5 mph 17.3 mph N/A   Clear
3:53 PM 97.0 °F - 39.0 °F 13% 29.84 in 10.0 mi West 8.1 mph - N/A   Clear
4:53 PM 98.1 °F - 42.1 °F 15% 29.83 in 10.0 mi WNW 6.9 mph - N/A   Clear
5:53 PM 98.1 °F - 39.9 °F 13% 29.82 in 10.0 mi NNW 4.6 mph - N/A   Clear
6:53 PM 97.0 °F - 37.9 °F 13% 29.81 in 10.0 mi Variable 3.5 mph - N/A   Clear
7:53 PM 93.9 °F - 37.9 °F 14% 29.82 in 10.0 mi Calm Calm - N/A   Clear
8:53 PM 80.1 °F - 48.0 °F 32% 29.83 in 10.0 mi East 6.9 mph - N/A   Clear
9:53 PM 80.1 °F - 51.1 °F 36% 29.85 in 10.0 mi SW 8.1 mph - N/A   Clear
10:53 PM 77.0 °F - 43.0 °F 30% 29.86 in 10.0 mi South 9.2 mph - N/A   Clear
11:53 PM 77.0 °F - 42.1 °F 29% 29.86 in 10.0 mi SSW 9.2 mph - N/A   Clear